EST,Max TemperatureF,Mean TemperatureF,Min TemperatureF,Max Dew PointF,MeanDew PointF,Min DewpointF,Max Humidity, Mean Humidity, Min Humidity, Max Sea Level PressureIn, Mean Sea Level PressureIn, Min Sea Level PressureIn, Max VisibilityMiles, Mean VisibilityMiles, Min VisibilityMiles, Max Wind SpeedMPH, Mean Wind SpeedMPH, Max Gust SpeedMPH,PrecipitationIn, CloudCover, Events, WindDirDegrees
2012-2-1,63,53,43,44,39,28,89,64,43,30.03,29.99,29.93,10,10,9,17,5,25,0.03,4,Rain,267
2012-2-2,46,42,37,37,31,24,86,68,55,30.29,30.09,29.98,10,10,8,18,7,24,0.00,5,,348
2012-2-3,45,38,28,24,22,20,82,60,44,30.50,30.41,30.33,10,10,9,13,6,16,0.00,0,,325
2012-2-4,39,33,27,32,28,23,92,78,55,30.36,30.24,30.12,10,7,4,7,2,,0.00,5,,256
2012-2-5,41,34,26,31,24,20,92,66,49,30.22,30.16,30.10,10,9,4,12,4,17,0.00,4,,4
2012-2-6,50,36,23,28,24,20,88,63,37,30.22,30.13,30.04,10,8,4,15,6,23,0.00,0,,261
2012-2-7,48,38,28,29,26,23,79,61,43,30.25,30.13,30.04,10,10,7,16,6,24,0.00,0,,305
2012-2-8,35,32,28,30,28,22,100,88,59,30.29,30.19,30.12,10,3,0,7,2,,0.08,6,Fog-Snow,50
2012-2-9,41,32,24,28,22,18,96,72,46,30.24,30.18,30.12,10,8,2,15,7,,0.00,1,,282
2012-2-10,39,31,23,32,25,19,96,76,49,30.17,30.05,29.91,10,6,0,9,3,,0.02,4,Fog-Snow,260
2012-2-11,36,30,23,32,29,13,100,89,65,29.91,29.73,29.61,10,2,0,25,5,34,0.09,8,Fog-Snow,292
2012-2-12,30,24,18,14,11,5,68,56,49,30.07,29.97,29.86,10,10,10,28,18,36,0.00,5,,296
2012-2-13,43,33,23,19,16,13,66,52,37,30.14,30.08,30.02,10,10,10,20,11,25,0.00,2,,263
2012-2-14,48,39,30,35,26,19,89,64,35,30.10,30.04,29.95,10,9,2,10,3,18,0.00,6,Rain-Snow,130
2012-2-15,48,39,30,36,31,26,93,75,50,30.30,30.19,30.02,10,7,2,15,5,,0.00,5,,301
2012-2-16,42,35,28,39,36,25,100,91,79,30.30,30.13,30.01,8,3,1,12,4,,0.18,8,Rain,129
2012-2-17,48,41,34,40,33,23,100,77,37,30.08,30.02,29.98,10,5,0,20,4,30,0.02,5,Fog-Rain,289
2012-2-18,53,40,27,33,23,19,75,53,35,30.11,30.03,29.86,10,10,10,23,7,29,0.00,3,,266
2012-2-19,43,35,27,25,22,20,78,59,43,30.12,30.04,29.94,10,10,10,15,6,,0.00,0,,6
2012-2-20,43,36,27,20,19,17,72,53,37,30.36,30.20,30.01,10,10,10,14,9,18,0.00,0,,346
2012-2-21,46,34,23,31,23,18,88,65,42,30.35,30.13,29.85,10,10,8,20,6,29,0.00,2,,139
2012-2-22,59,46,34,35,31,24,86,59,27,29.83,29.67,29.44,10,9,5,16,4,24,0.00,3,Rain,185
2012-2-23,57,50,42,38,31,25,76,51,28,29.70,29.56,29.41,10,10,10,28,7,36,0.00,4,Rain,278
2012-2-24,44,42,39,43,37,27,100,86,55,29.63,29.51,29.41,10,5,0,23,12,31,0.22,7,Fog-Rain,76
2012-2-25,39,36,33,26,21,17,73,53,41,30.16,29.83,29.60,10,10,8,32,23,47,0.00,4,Snow,278
2012-2-26,43,36,30,23,20,16,72,52,40,30.45,30.39,30.21,10,10,8,21,11,31,0.00,1,,312
2012-2-27,61,44,27,31,27,23,89,56,26,30.41,30.26,30.11,10,8,3,21,5,31,0.00,1,,202
2012-2-28,50,40,30,27,22,19,66,48,31,30.45,30.38,30.29,10,10,7,18,10,32,0.00,1,,299
2012-2-29,43,37,32,42,37,26,97,90,67,30.33,29.94,29.66,10,4,1,14,7,,1.42,7,Rain,87